| time (UTC) | temp F | wind direction | speed knots | gust knots | rain 1hr in | rain 24hr in | rain mn in | humidity % | barometer mb |
| 20260503230137 | 30 | 223 | 0.0 | 0.0 | 0.00 | 0.01 | 0.00 | 99 | 1009.5 |
| 20260503225137 | 30 | 223 | 0.0 | 0.0 | 0.00 | 0.01 | 0.00 | 99 | 1009.5 |
| 20260503224137 | 30 | 223 | 0.0 | 0.0 | 0.00 | 0.01 | 0.00 | 99 | 1009.4 |
| 20260503223137 | 30 | 223 | 0.0 | 0.0 | 0.00 | 0.01 | 0.00 | 99 | 1009.4 |
| 20260503222137 | 30 | 223 | 0.0 | 0.0 | 0.00 | 0.01 | 0.00 | 99 | 1009.3 |
| 20260503221137 | 31 | 334 | 0.0 | 0.0 | 0.00 | 0.01 | 0.00 | 99 | 1009.3 |
| 20260503220137 | 31 | 223 | 0.0 | 0.0 | 0.00 | 0.01 | 0.00 | 99 | 1009.3 |
| 20260503215137 | 31 | 223 | 0.0 | 0.0 | 0.00 | 0.01 | 0.00 | 99 | 1009.4 |
| 20260503214137 | 31 | 223 | 0.0 | 0.0 | 0.00 | 0.01 | 0.00 | 99 | 1009.4 |
| 20260503213137 | 32 | 223 | 0.0 | 0.0 | 0.00 | 0.01 | 0.00 | 98 | 1009.3 |
| 20260503212137 | 32 | 223 | 0.0 | 0.0 | 0.00 | 0.01 | 0.00 | 96 | 1009.2 |
| 20260503211137 | 32 | 223 | 0.0 | 0.0 | 0.00 | 0.01 | 0.01 | 95 | 1009.3 |
| 20260503210137 | 33 | 334 | 0.0 | 0.0 | 0.00 | 0.01 | 0.01 | 94 | 1009.3 |
| 20260503205137 | 33 | 223 | 0.0 | 0.0 | 0.00 | 0.01 | 0.01 | 93 | 1009.3 |
| 20260503204137 | 34 | 223 | 0.0 | 0.0 | 0.00 | 0.01 | 0.01 | 92 | 1009.3 |
| 20260503203137 | 34 | 307 | 0.0 | 0.0 | 0.00 | 0.01 | 0.01 | 91 | 1009.1 |
| 20260503202137 | 35 | 267 | 0.0 | 0.0 | 0.00 | 0.01 | 0.01 | 89 | 1009.1 |
| 20260503201137 | 35 | 267 | 0.0 | 0.0 | 0.00 | 0.01 | 0.01 | 88 | 1009.1 |
| 20260503200137 | 36 | 267 | 0.0 | 0.0 | 0.00 | 0.01 | 0.01 | 87 | 1008.9 |
| 20260503195137 | 37 | 267 | 0.0 | 0.0 | 0.00 | 0.01 | 0.01 | 86 | 1009.0 |
| 20260503194137 | 37 | 267 | 0.0 | 0.9 | 0.00 | 0.01 | 0.01 | 85 | 1008.9 |
| 20260503193137 | 38 | 295 | 0.0 | 0.9 | 0.00 | 0.01 | 0.01 | 82 | 1008.8 |
| 20260503192137 | 39 | 267 | 0.0 | 0.0 | 0.00 | 0.01 | 0.01 | 80 | 1008.8 |
| 20260503191137 | 39 | 223 | 0.0 | 0.9 | 0.00 | 0.01 | 0.01 | 77 | 1008.8 |
| 20260503190137 | 40 | 178 | 0.0 | 0.0 | 0.00 | 0.01 | 0.01 | 74 | 1008.8 |
| 20260503185137 | 41 | 267 | 0.0 | 0.9 | 0.00 | 0.01 | 0.01 | 73 | 1008.6 |
| 20260503184137 | 43 | 312 | 0.0 | 0.0 | 0.00 | 0.01 | 0.01 | 70 | 1008.6 |
| 20260503183137 | 44 | 302 | 0.0 | 0.0 | 0.00 | 0.01 | 0.01 | 67 | 1008.6 |
| 20260503182138 | 46 | 313 | 0.0 | 0.0 | 0.00 | 0.01 | 0.01 | 64 | 1008.6 |
| 20260503181137 | 47 | 312 | 0.0 | 0.9 | 0.00 | 0.01 | 0.01 | 62 | 1008.5 |
| 20260503180137 | 49 | 345 | 0.0 | 0.9 | 0.00 | 0.01 | 0.01 | 60 | 1008.2 |
| 20260503175137 | 50 | 278 | 0.0 | 4.3 | 0.00 | 0.01 | 0.01 | 58 | 1008.2 |
| 20260503174137 | 51 | 312 | 0.0 | 3.5 | 0.00 | 0.01 | 0.01 | 58 | 1008.2 |
| 20260503173137 | 51 | 327 | 0.0 | 2.6 | 0.00 | 0.01 | 0.01 | 57 | 1008.1 |
| 20260503172137 | 52 | 306 | 1.7 | 3.5 | 0.00 | 0.01 | 0.01 | 57 | 1008.0 |
| 20260503171137 | 52 | 257 | 0.0 | 3.5 | 0.00 | 0.01 | 0.01 | 57 | 1007.8 |
| 20260503170137 | 52 | 243 | 0.9 | 2.6 | 0.00 | 0.01 | 0.01 | 57 | 1007.8 |
| 20260503160137 | 54 | 320 | 1.7 | 4.3 | 0.00 | 0.01 | 0.01 | 55 | 1007.5 |
| 20260503150138 | 55 | 286 | 0.9 | 6.1 | 0.00 | 0.01 | 0.01 | 55 | 1007.4 |
| 20260503140138 | 55 | 237 | 4.3 | 8.7 | 0.00 | 0.01 | 0.01 | 55 | 1007.2 |
| 20260503131138 | 55 | 291 | 4.3 | 6.1 | 0.00 | 0.01 | 0.01 | 60 | 1007.1 |
| 20260503130138 | 55 | 312 | 0.0 | 6.1 | 0.00 | 0.01 | 0.01 | 60 | 1006.9 |
| 20260503120138 | 54 | 293 | 0.9 | 7.0 | 0.00 | 0.01 | 0.01 | 70 | 1006.9 |
| 20260503110138 | 54 | 295 | 3.5 | 4.3 | 0.00 | 0.01 | 0.01 | 77 | 1006.5 |
| 20260503100138 | 54 | 267 | 0.9 | 7.0 | 0.01 | 0.01 | 0.01 | 91 | 1006.0 |
| 20260503090138 | 54 | 306 | 0.0 | 1.7 | 0.00 | 0.00 | 0.00 | 84 | 1005.9 |
| 20260503081138 | 54 | 334 | 0.0 | 0.9 | 0.00 | 0.00 | 0.00 | 82 | 1005.4 |
| 20260503080138 | 53 | 267 | 1.7 | 2.6 | 0.00 | 0.00 | 0.00 | 85 | 1005.5 |
| 20260503072138 | 52 | 336 | 0.9 | 0.9 | 0.00 | 0.00 | 0.00 | 92 | 1005.7 |
| 20260503071138 | 52 | 336 | 0.0 | 0.0 | 0.00 | 0.00 | 0.00 | 93 | 1005.6 |
| 20260503070138 | 51 | 340 | 0.0 | 0.9 | 0.00 | 0.00 | 0.00 | 94 | 1005.7 |
| 20260503060138 | 49 | 267 | 0.0 | 1.7 | 0.00 | 0.00 | 0.00 | 99 | 1006.1 |
| 20260503054138 | 49 | 267 | 0.0 | 1.7 | 0.00 | 0.00 | 0.00 | 99 | 1006.1 |
| 20260503053138 | 49 | 267 | 0.0 | 1.7 | 0.00 | 0.00 | 0.00 | 99 | 1006.0 |
| 20260503052138 | 48 | 267 | 0.9 | 1.7 | 0.00 | 0.00 | 0.00 | 99 | 1005.9 |
| 20260503051139 | 48 | 267 | 0.0 | 1.7 | 0.00 | 0.00 | 0.00 | 99 | 1006.0 |
| 20260503050139 | 47 | 267 | 0.0 | 0.0 | 0.00 | 0.00 | 0.00 | 99 | 1006.0 |
| 20260503045139 | 46 | 267 | 0.0 | 1.7 | 0.00 | 0.00 | 0.00 | 99 | 1006.0 |
| 20260503044139 | 46 | 267 | 1.7 | 1.7 | 0.00 | 0.00 | 0.00 | 99 | 1006.1 |
| 20260503043139 | 46 | 267 | 0.9 | 1.7 | 0.00 | 0.00 | 0.00 | 99 | 1006.0 |
| 20260503042139 | 45 | 267 | 0.0 | 1.7 | 0.00 | 0.00 | 0.00 | 99 | 1005.9 |
| 20260503041139 | 45 | 267 | 0.0 | 1.7 | 0.00 | 0.00 | 0.00 | 99 | 1006.0 |
| 20260503040139 | 44 | 267 | 0.0 | 0.9 | 0.00 | 0.00 | 0.00 | 99 | 1005.9 |
| 20260503035139 | 44 | 267 | 0.0 | 0.9 | 0.00 | 0.00 | 0.00 | 99 | 1005.8 |
| 20260503034139 | 44 | 267 | 0.0 | 0.0 | 0.00 | 0.00 | 0.00 | 99 | 1005.6 |
| 20260503033139 | 44 | 267 | 0.0 | 0.0 | 0.00 | 0.00 | 0.00 | 99 | 1005.5 |
| 20260503032139 | 43 | 267 | 0.0 | 0.0 | 0.00 | 0.00 | 0.00 | 99 | 1005.3 |
| 20260503031139 | 43 | 267 | 0.0 | 0.0 | 0.00 | 0.00 | 0.00 | 99 | 1005.2 |
| 20260503030139 | 43 | 267 | 0.0 | 0.0 | 0.00 | 0.00 | 0.00 | 99 | 1005.2 |
| 20260503025139 | 43 | 267 | 0.0 | 0.0 | 0.00 | 0.00 | 0.00 | 99 | 1005.2 |
| 20260503024139 | 42 | 267 | 0.0 | 0.0 | 0.00 | 0.00 | 0.00 | 99 | 1005.2 |
| 20260503023139 | 42 | 267 | 0.0 | 0.0 | 0.00 | 0.00 | 0.00 | 99 | 1005.2 |
| 20260503022139 | 42 | 267 | 0.0 | 0.0 | 0.00 | 0.00 | 0.00 | 99 | 1005.3 |
| 20260503021139 | 42 | 267 | 0.0 | 0.9 | 0.00 | 0.00 | 0.00 | 99 | 1005.4 |
| 20260503020139 | 42 | 267 | 0.0 | 1.7 | 0.00 | 0.00 | 0.00 | 99 | 1005.3 |
| 20260503015139 | 42 | 267 | 0.0 | 0.9 | 0.00 | 0.00 | 0.00 | 99 | 1005.2 |
| 20260503014139 | 42 | 267 | 0.0 | 0.0 | 0.00 | 0.00 | 0.00 | 99 | 1005.3 |
| 20260503013139 | 42 | 267 | 0.0 | 0.9 | 0.00 | 0.00 | 0.00 | 99 | 1005.3 |
| 20260503012139 | 42 | 267 | 0.0 | 0.9 | 0.00 | 0.00 | 0.00 | 99 | 1005.4 |
| 20260503011139 | 43 | 267 | 0.0 | 0.0 | 0.00 | 0.00 | 0.00 | 98 | 1005.3 |
| 20260503010139 | 43 | 267 | 0.0 | 0.0 | 0.00 | 0.00 | 0.00 | 97 | 1005.4 |
| 20260503005139 | 43 | 267 | 0.0 | 0.0 | 0.00 | 0.00 | 0.00 | 97 | 1005.3 |
| 20260503004139 | 43 | 267 | 0.0 | 0.0 | 0.00 | 0.00 | 0.00 | 97 | 1005.3 |
| 20260503003139 | 43 | 267 | 0.0 | 0.0 | 0.00 | 0.00 | 0.00 | 97 | 1005.3 |
| 20260503002139 | 43 | 267 | 0.0 | 0.0 | 0.00 | 0.00 | 0.00 | 96 | 1005.3 |
| 20260503001139 | 43 | 267 | 0.0 | 0.0 | 0.00 | 0.00 | 0.00 | 95 | 1005.4 |
| 20260503000139 | 43 | 267 | 0.0 | 0.0 | 0.00 | 0.00 | 0.00 | 95 | 1005.4 |
| 20260502235139 | 43 | 267 | 0.0 | 0.0 | 0.00 | 0.00 | 0.00 | 95 | 1005.3 |
| 20260502234139 | 43 | 267 | 0.0 | 0.0 | 0.00 | 0.00 | 0.00 | 94 | 1005.6 |
| 20260502233139 | 43 | 267 | 0.0 | 0.0 | 0.00 | 0.00 | 0.00 | 93 | 1005.4 |
| 20260502232139 | 43 | 267 | 0.0 | 0.0 | 0.00 | 0.00 | 0.00 | 93 | 1005.4 |
| 20260502231139 | 44 | 267 | 0.0 | 0.0 | 0.00 | 0.00 | 0.00 | 92 | 1005.3 |